Tracking 29018 objects as of 14-Jun-2024
HD Live streaming from Space Station
objects crossing your sky now

STARLINK-31299

Track STARLINK-31299 now!
10-day predictions
STARLINK-31299 is classified as:


NORAD ID: 59080
Int'l Code: 2024-041G
Perigee: 262.9 km
Apogee: 266.1 km
Inclination: 43.0 °
Period: 89.7 minutes
Semi major axis: 6635 km
RCS: Unknown
Launch date: February 29, 2024
Source: United States (US)
Launch site: AIR FORCE EASTERN TEST RANGE (AFETR)
Your satellite tracking list
Your tracking list is empty




NASA's NSSDC Master Catalog

Two Line Element Set (TLE):
1 59080U 24041G   24165.21372018  .00201657  26677-4  26421-3 0  9996
2 59080  42.9734 242.0513 0002451 270.3620  89.6979 16.06178809 17879
Source of the keplerian elements: AFSPC